Houston Hull, TX

10:10 PM CDT on October 22, 2019 (GMT -0500)
Sugar Land Municipal-Hull

Weather History for KSGR - September, 2019

Change the Weather History Date:

Monday, September 23, 2019

  Actual Average Record
Temperature  
Mean Temperature 84 °F -  
Max Temperature 93 °F 87 °F 96 °F (1980)
Min Temperature 77 °F 66 °F 50 °F (1983)
Cooling Degree Days 19    
Growing Degree Days 34 (Base 50)    
Moisture  
Dew Point 78 °F    
Average Humidity 85    
Maximum Humidity 100    
Minimum Humidity 61    
Precipitation  
Precipitation 0.31 in - - ()
Sea Level Pressure  
Sea Level Pressure 30.00 in    
Wind  
Wind Speed 5 mph (SE)    
Max Wind Speed 16 mph    
Max Gust Speed 21 mph    
Visibility 9 miles    
Events Rain , Thunderstorm    
Averages and records for this station are not official NWS values.
T = Trace of Precipitation, MM = Missing Value Source: NWS Daily Summary

Daily Weather History Graph

Daily Weather History Graph

Search for Another Location

Airport or City:

Astronomy

Sep. 23, 2019 Rise Set
Actual Time 7:11 AM CDT 7:18 PM CDT
Civil Twilight 6:47 AM CDT 7:41 PM CDT
Nautical Twilight 6:19 AM CDT 8:09 PM CDT
Astronomical Twilight 5:51 AM CDT 8:37 PM CDT
Moon 1:23 AM CDT 3:45 PM CDT
Length of Visible Light 12h 54m
Length of Day
12h 06m
Waning Crescent, 33% of the Moon is Illuminated
Sep 23
Waning Crescent
Sep 28
New
Oct 5
First Quarter
Oct 13
Full
Oct 21
Last Quarter

Hourly Weather History & Observations

Time (CDT) Temp. Heat Index Dew Point Humidity Pressure Visibility Wind Dir Wind Speed Gust Speed Precip Events Conditions
12:53 AM 80.1 °F 86.4 °F 78.1 °F 94% 30.01 in 10.0 mi ESE 4.6 mph - N/A   Clear
1:53 AM 80.1 °F 86.4 °F 78.1 °F 94% 30.01 in 10.0 mi SE 4.6 mph - N/A   Clear
2:53 AM 79.0 °F - 78.1 °F 97% 30.00 in 10.0 mi ESE 3.5 mph - N/A   Clear
3:53 AM 78.1 °F - 77.0 °F 96% 29.99 in 10.0 mi SE 3.5 mph - N/A   Clear
4:53 AM 77.0 °F - 77.0 °F 100% 29.99 in 10.0 mi Calm Calm - N/A   Partly Cloudy
5:53 AM 77.0 °F - 77.0 °F 100% 30.00 in 9.0 mi Calm Calm - N/A   Clear
6:53 AM 77.0 °F - 75.9 °F 96% 30.02 in 10.0 mi NNE 3.5 mph - N/A   Clear
7:53 AM 78.1 °F - 78.1 °F 100% 30.03 in 10.0 mi North 3.5 mph - N/A   Clear
8:53 AM 84.0 °F 97.3 °F 80.1 °F 88% 30.04 in 10.0 mi Calm Calm - N/A   Partly Cloudy
9:13 AM 82.9 °F 93.8 °F 79.0 °F 88% 30.04 in 10.0 mi SE 3.5 mph - N/A   Mostly Cloudy
9:53 AM 84.0 °F 96.0 °F 79.0 °F 85% 30.05 in 10.0 mi SSE 3.5 mph - N/A   Mostly Cloudy
10:26 AM 84.9 °F 97.5 °F 79.0 °F 82% 30.06 in 10.0 mi Calm Calm - N/A   Overcast
10:53 AM 86.0 °F 98.3 °F 78.1 °F 77% 30.06 in 10.0 mi Variable 4.6 mph - N/A   Scattered Clouds
11:53 AM 89.1 °F 103.2 °F 78.1 °F 70% 30.04 in 10.0 mi Calm Calm - N/A   Scattered Clouds
12:53 PM 91.0 °F 102.9 °F 75.9 °F 61% 30.01 in 10.0 mi South 3.5 mph - N/A   Clear
1:53 PM 88.0 °F 101.3 °F 78.1 °F 72% 30.01 in 10.0 mi SSE 16.1 mph 20.7 mph N/A   Partly Cloudy
2:36 PM 90.0 °F 101.3 °F 75.9 °F 63% 29.99 in 10.0 mi South 9.2 mph - 0.00 in Thunderstorm Partly Cloudy
2:53 PM 89.1 °F 103.2 °F 78.1 °F 70% 29.99 in 10.0 mi South 12.7 mph - 0.00 in   Clear
3:53 PM 89.1 °F 103.2 °F 78.1 °F 70% 29.97 in 10.0 mi East 11.5 mph - N/A   Scattered Clouds
4:46 PM 79.0 °F - 73.9 °F 84% 29.97 in 1.8 mi NE 9.2 mph - 0.18 in Rain Heavy Rain
4:53 PM 78.1 °F - 73.0 °F 84% 29.97 in 4.0 mi NNW 8.1 mph - 0.31 in Rain Heavy Rain
5:53 PM 86.0 °F 98.3 °F 78.1 °F 77% 29.96 in 4.0 mi SE 9.2 mph - 0.00 in   Haze
6:53 PM 84.9 °F 96.6 °F 78.1 °F 80% 29.96 in 10.0 mi SE 11.5 mph - N/A   Clear
7:53 PM 82.9 °F 92.8 °F 78.1 °F 85% 29.96 in 10.0 mi SSE 10.4 mph - N/A   Clear
8:53 PM 82.0 °F 91.0 °F 78.1 °F 88% 29.98 in 10.0 mi SSE 10.4 mph - N/A   Clear
9:53 PM 81.0 °F 88.6 °F 78.1 °F 91% 29.99 in 10.0 mi SSE 8.1 mph - N/A   Clear
10:53 PM 80.1 °F 86.4 °F 78.1 °F 94% 29.99 in 10.0 mi SSE 8.1 mph - N/A   Clear
11:53 PM 80.1 °F 86.4 °F 78.1 °F 94% 29.98 in 10.0 mi South 4.6 mph - N/A   Clear